User: anonymous   Login
Location: Unspecified
(0.0000°N, 0.0000°E)
Time: 15:14:05
(UTC+00:00)
Language:

GSAT 7 - Orbit

View from above orbital plane
View from above orbital plane
View from above satellite
View from above satellite

Ground track
Ground track

The orbit data is extracted from the following two-line orbital elements,

1 39234U 13044B   17112.20976179 -.00000086 +00000-0 +00000-0 0  9991
2 39234 000.0965 098.5024 0002264 213.5183 047.9679 01.00272585011844
Epoch (UTC): 22 April 2017 05:02:03
Eccentricity: 0.0002264
inclination: 0.0965°
perigee height: 35776 km
apogee height: 35795 km
right ascension of ascending node: 98.5024°
argument of perigee: 213.5183°
revolutions per day: 1.00272585
mean anomaly at epoch: 47.9679°
orbit number at epoch: 1184

The dashed part of the orbit path shows where the satellite is in the earth's shadow,  

DLR